contact: severine.martini@mio.osupytheas.fr, dominique.lefevre@mio.osupytheas.fr
Project:EMSO Ligure-ouest http://www.emso-fr.org/EMSO-France
Sensor Aquadopp, Serial 05974 
DOI : "https://doi.org/10.17882/97948" 
Title:EMSO Western Ligurian : Data Bathybot Aquadopp sensor - deploiement 2023-04-28
Datetime,Profondeur,Latitude,Longitude,X_East,Y_North,Z_up,Amplitude_X,Amplitude_Y,Amplitude_Z,Batterie,Sound_Speed,Heading,Pitch,Roll,Pressure,Temperature,Fluorescence,Speed,Direction
time,m,degree_north,degree_east,m.s-1,m.s-1,m.s-1,1,1,1,Volt,m.s-1,degree,degree,degree,dbar,degree_C,arbitrary units (a.u.),m.s-1,degree
2023-10-11T00:03:13,2420,42.8014,5.9826,0.499,0.78,2.608,155.0,152.0,152.0,11.8,1504.7,271.5,-0.8,0.9,2485.514,13.28,776.0,0.926,32.6
2023-10-11T00:06:13,2420,42.8014,5.9826,0.903,0.26,3.085,155.0,152.0,152.0,11.8,1504.7,271.4,-0.9,0.8,2485.697,13.28,791.0,0.94,73.9
2023-10-11T00:09:13,2420,42.8014,5.9826,0.706,0.045,3.682,155.0,151.0,152.0,11.8,1504.7,271.4,-0.8,0.9,2485.378,13.28,786.0,0.707,86.4
2023-10-11T00:12:13,2420,42.8014,5.9826,0.491,-0.448,3.006,155.0,151.0,152.0,11.8,1504.7,271.5,-0.8,0.9,2485.311,13.28,793.0,0.665,132.4
2023-10-11T00:15:13,2420,42.8014,5.9826,0.957,0.511,2.514,155.0,152.0,152.0,11.8,1504.7,271.4,-0.9,0.9,2485.472,13.28,786.0,1.085,61.9
2023-10-11T00:18:13,2420,42.8014,5.9826,0.766,0.025,2.728,155.0,151.0,152.0,11.7,1504.7,271.4,-0.8,0.9,2485.223,13.28,792.0,0.766,88.1
2023-10-11T00:21:13,2420,42.8014,5.9826,1.02,0.277,2.875,155.0,151.0,152.0,11.8,1504.7,271.4,-0.8,0.8,2485.474,13.28,779.0,1.057,74.8
2023-10-11T00:24:13,2420,42.8014,5.9826,0.992,0.049,3.353,155.0,152.0,152.0,11.8,1504.7,271.4,-0.8,0.9,2484.954,13.28,777.0,0.993,87.2
2023-10-11T00:27:13,2420,42.8014,5.9826,0.358,-0.199,2.669,155.0,152.0,152.0,11.7,1504.7,271.3,-0.8,0.9,2485.468,13.28,785.0,0.41,119.1
2023-10-11T00:30:12,2420,42.8014,5.9826,0.793,0.037,3.577,155.0,152.0,152.0,11.8,1504.7,271.4,-0.8,0.8,2485.494,13.28,792.0,0.794,87.3
2023-10-11T00:33:13,2420,42.8014,5.9826,0.548,-0.195,3.395,155.0,151.0,152.0,11.8,1504.7,271.4,-0.8,0.9,2485.091,13.28,775.0,0.582,109.6
2023-10-11T00:36:13,2420,42.8014,5.9826,0.319,-0.212,3.646,155.0,152.0,152.0,11.8,1504.7,271.5,-0.8,0.9,2485.069,13.28,779.0,0.383,123.6
2023-10-11T00:39:13,2420,42.8014,5.9826,0.585,0.048,3.789,155.0,152.0,152.0,11.8,1504.7,271.3,-0.8,0.9,2485.283,13.28,780.0,0.587,85.3
2023-10-11T00:42:13,2420,42.8014,5.9826,1.077,0.263,2.86,155.0,151.0,152.0,11.8,1504.7,271.4,-0.8,0.9,2484.886,13.28,786.0,1.108,76.3
2023-10-11T00:45:13,2420,42.8014,5.9826,0.895,0.023,3.442,155.0,152.0,152.0,11.8,1504.7,271.4,-0.8,0.9,2484.936,13.28,793.0,0.895,88.5
2023-10-11T00:48:13,2420,42.8014,5.9826,0.9,0.047,3.466,155.0,152.0,152.0,11.7,1504.7,271.5,-0.8,0.9,2485.41,13.28,801.0,0.901,87.0
2023-10-11T00:51:13,2420,42.8014,5.9826,0.538,0.045,3.853,155.0,152.0,152.0,11.8,1504.7,271.3,-0.8,0.8,2485.301,13.28,790.0,0.54,85.2
2023-10-11T00:54:13,2420,42.8014,5.9826,0.782,-0.213,3.086,155.0,152.0,152.0,11.8,1504.7,271.4,-0.8,0.9,2485.404,13.28,789.0,0.81,105.2
2023-10-11T00:57:13,2420,42.8014,5.9826,0.619,-0.461,2.887,155.0,152.0,152.0,11.8,1504.7,271.4,-0.9,0.9,2485.316,13.28,779.0,0.772,126.7
2023-10-11T01:03:13,2420,42.8014,5.9826,0.182,0.278,2.89,155.0,151.0,152.0,11.8,1504.7,271.4,-0.9,0.9,2485.364,13.28,786.0,0.332,33.2
2023-10-11T01:06:13,2420,42.8014,5.9826,0.68,0.042,2.809,155.0,151.0,152.0,11.8,1504.7,271.4,-0.8,0.9,2485.376,13.28,775.0,0.681,86.5
2023-10-11T01:09:13,2420,42.8014,5.9826,0.244,-0.2,3.717,155.0,152.0,152.0,11.8,1504.7,271.3,-0.8,0.8,2485.303,13.28,786.0,0.315,129.3
2023-10-11T01:12:13,2420,42.8014,5.9826,0.55,0.057,3.811,155.0,152.0,152.0,11.8,1504.7,271.3,-0.8,0.9,2485.508,13.28,806.0,0.553,84.1
2023-10-11T01:15:13,2420,42.8014,5.9826,0.587,0.054,3.79,155.0,152.0,152.0,11.8,1504.7,271.4,-0.8,0.9,2485.279,13.28,781.0,0.589,84.7
2023-10-11T01:18:13,2420,42.8014,5.9826,0.425,0.522,3.05,155.0,151.0,152.0,11.8,1504.7,271.3,-0.8,0.8,2485.101,13.28,777.0,0.673,39.1
2023-10-11T01:21:13,2420,42.8014,5.9826,0.945,-0.227,2.97,155.0,151.0,152.0,11.8,1504.7,271.4,-0.9,0.9,2485.171,13.28,800.0,0.972,103.5
2023-10-11T01:24:13,2420,42.8014,5.9826,0.593,0.023,2.027,155.0,152.0,152.0,11.8,1504.7,271.5,-0.8,0.9,2485.201,13.28,795.0,0.593,87.8
2023-10-11T01:27:13,2420,42.8014,5.9826,0.728,0.29,3.197,155.0,151.0,152.0,11.8,1504.7,271.4,-0.9,0.9,2485.542,13.28,787.0,0.784,68.3
2023-10-11T01:30:13,2420,42.8014,5.9826,0.975,-0.469,2.521,155.0,151.0,152.0,11.8,1504.7,271.4,-0.8,0.9,2485.207,13.28,791.0,1.082,115.7
2023-10-11T01:33:12,2420,42.8014,5.9826,0.989,0.017,3.297,155.0,152.0,152.0,11.8,1504.7,271.4,-0.8,0.9,2485.504,13.28,792.0,0.989,89.0
2023-10-11T01:36:13,2420,42.8014,5.9826,0.875,0.018,3.477,155.0,151.0,152.0,11.8,1504.7,271.3,-0.9,0.9,2485.251,13.28,791.0,0.875,88.8
2023-10-11T01:39:13,2420,42.8014,5.9826,0.239,0.065,4.145,155.0,152.0,152.0,11.8,1504.7,271.4,-0.8,0.9,2485.026,13.28,794.0,0.247,74.8
2023-10-11T01:42:13,2420,42.8014,5.9826,0.41,-0.182,3.514,155.0,152.0,152.0,11.8,1504.7,271.5,-0.8,0.9,2485.428,13.28,783.0,0.449,113.9
2023-10-11T01:45:13,2420,42.8014,5.9826,0.338,0.018,3.981,155.0,152.0,152.0,11.8,1504.7,271.5,-0.8,0.9,2485.384,13.28,773.0,0.338,87.0
2023-10-11T01:48:13,2420,42.8014,5.9826,0.697,0.032,3.663,155.0,151.0,152.0,11.8,1504.7,271.4,-0.8,0.9,2485.45,13.28,782.0,0.698,87.4
2023-10-11T01:51:13,2420,42.8014,5.9826,0.836,-0.215,3.084,155.0,152.0,152.0,11.8,1504.7,271.5,-0.8,0.9,2485.484,13.28,790.0,0.863,104.4
2023-10-11T01:54:13,2420,42.8014,5.9826,0.738,-0.188,3.138,155.0,152.0,152.0,11.8,1504.7,271.4,-0.8,0.9,2485.018,13.28,797.0,0.762,104.3
2023-10-11T01:57:13,2420,42.8014,5.9826,0.819,0.03,3.525,155.0,152.0,152.0,11.8,1504.7,271.4,-0.8,0.9,2485.392,13.28,790.0,0.82,87.9
2023-10-11T02:03:12,2420,42.8014,5.9826,1.151,0.018,3.189,155.0,151.0,152.0,11.8,1504.7,271.3,-0.8,0.9,2485.404,13.28,778.0,1.151,89.1
2023-10-11T02:06:13,2420,42.8014,5.9826,0.454,0.309,3.429,155.0,152.0,152.0,11.8,1504.7,271.4,-0.8,0.9,2485.324,13.28,786.0,0.549,55.8
2023-10-11T02:09:13,2420,42.8014,5.9826,0.397,0.532,3.11,155.0,152.0,152.0,11.8,1504.7,271.3,-0.8,0.8,2485.151,13.28,785.0,0.664,36.7
2023-10-11T02:12:13,2420,42.8014,5.9826,1.297,0.014,3.057,155.0,152.0,152.0,11.8,1504.7,271.4,-0.8,0.9,2485.585,13.28,793.0,1.297,89.4
2023-10-11T02:15:13,2420,42.8014,5.9826,0.62,0.065,3.697,155.0,152.0,152.0,11.8,1504.7,271.3,-0.8,0.9,2485.404,13.28,791.0,0.623,84.0
2023-10-11T02:18:13,2420,42.8014,5.9826,1.117,0.027,3.203,155.0,151.0,152.0,11.8,1504.7,271.4,-0.9,0.9,2485.382,13.28,792.0,1.117,88.6
2023-10-11T02:21:13,2420,42.8014,5.9826,0.599,0.284,3.333,155.0,151.0,152.0,11.8,1504.7,271.4,-0.9,0.9,2484.86,13.28,789.0,0.663,64.6
2023-10-11T02:24:13,2420,42.8014,5.9826,0.43,0.286,2.615,155.0,151.0,152.0,11.8,1504.7,271.3,-0.8,0.9,2485.356,13.28,791.0,0.516,56.4
2023-10-11T02:27:13,2420,42.8014,5.9826,0.847,0.272,3.029,155.0,151.0,152.0,11.8,1504.7,271.3,-0.8,0.9,2485.546,13.28,794.0,0.89,72.2
2023-10-11T02:30:13,2420,42.8014,5.9826,0.783,0.03,3.573,155.0,151.0,152.0,11.8,1504.7,271.3,-0.8,0.9,2485.755,13.28,790.0,0.784,87.8
2023-10-11T02:33:12,2420,42.8014,5.9826,0.733,-0.214,3.144,155.0,152.0,152.0,11.8,1504.7,271.4,-0.8,0.9,2485.424,13.28,788.0,0.764,106.3
2023-10-11T02:36:13,2420,42.8014,5.9826,0.647,0.05,3.696,155.0,152.0,152.0,11.8,1504.7,271.4,-0.8,0.9,2485.472,13.28,774.0,0.649,85.6
2023-10-11T02:39:13,2420,42.8014,5.9826,0.682,0.062,3.69,155.0,152.0,152.0,11.8,1504.7,271.3,-0.8,0.9,2485.283,13.28,1135.0,0.685,84.8
2023-10-11T02:42:13,2420,42.8014,5.9826,0.431,-0.2,3.451,155.0,152.0,152.0,11.8,1504.7,271.5,-0.8,0.9,2485.771,13.28,785.0,0.475,114.9
2023-10-11T02:45:13,2420,42.8014,5.9826,0.767,0.501,2.721,155.0,151.0,152.0,11.8,1504.7,271.5,-0.8,0.9,2485.193,13.28,793.0,0.916,56.8
2023-10-11T02:48:13,2420,42.8014,5.9826,0.561,-0.209,3.329,155.0,151.0,152.0,11.8,1504.7,271.4,-0.8,0.8,2485.197,13.28,795.0,0.599,110.4
2023-10-11T02:51:13,2420,42.8014,5.9826,1.078,0.49,2.383,155.0,152.0,152.0,11.8,1504.7,271.4,-0.8,0.9,2485.107,13.28,799.0,1.184,65.6
2023-10-11T02:54:13,2420,42.8014,5.9826,0.109,0.025,3.433,155.0,151.0,152.0,11.8,1504.7,271.4,-0.8,0.9,2485.169,13.28,789.0,0.111,77.1
2023-10-11T02:57:13,2420,42.8014,5.9826,0.162,-0.103,3.144,155.0,152.0,152.0,11.8,1504.7,271.4,-0.8,0.9,2485.39,13.28,786.0,0.191,122.4
2023-10-11T03:03:13,2420,42.8014,5.9826,0.673,0.05,3.67,155.0,152.0,152.0,11.8,1504.7,271.4,-0.8,0.9,2485.34,13.28,777.0,0.675,85.8
2023-10-11T03:06:13,2420,42.8014,5.9826,1.182,0.015,3.149,155.0,152.0,152.0,11.8,1504.7,271.3,-0.9,0.9,2485.241,13.28,789.0,1.182,89.3
2023-10-11T03:09:13,2420,42.8014,5.9826,0.25,0.304,3.694,155.0,152.0,152.0,11.8,1504.7,271.3,-0.8,0.9,2485.332,13.28,801.0,0.394,39.4
2023-10-11T03:12:13,2420,42.8014,5.9826,0.651,0.043,3.727,155.0,152.0,152.0,11.7,1504.7,271.3,-0.8,0.8,2485.462,13.28,788.0,0.652,86.2
2023-10-11T03:15:13,2420,42.8014,5.9826,0.558,-0.202,3.345,155.0,151.0,152.0,11.8,1504.7,271.5,-0.8,0.9,2485.715,13.28,794.0,0.593,109.9
2023-10-11T03:18:13,2420,42.8014,5.9826,0.28,0.028,2.326,155.0,151.0,152.0,11.8,1504.7,271.5,-0.8,0.9,2485.354,13.28,790.0,0.281,84.3
2023-10-11T03:21:13,2420,42.8014,5.9826,0.09,-0.442,3.353,155.0,152.0,152.0,11.8,1504.7,271.4,-0.8,0.9,2485.506,13.28,785.0,0.451,168.5
2023-10-11T03:24:13,2420,42.8014,5.9826,0.932,0.063,3.396,155.0,152.0,152.0,11.8,1504.7,271.4,-0.8,0.9,2485.372,13.28,783.0,0.934,86.1
2023-10-11T03:27:13,2420,42.8014,5.9826,0.712,0.042,3.601,155.0,151.0,152.0,11.8,1504.7,271.5,-0.8,0.9,2485.211,13.28,790.0,0.713,86.6
2023-10-11T03:30:12,2420,42.8014,5.9826,0.884,0.027,3.508,155.0,152.0,152.0,11.8,1504.7,271.3,-0.9,0.9,2485.49,13.28,791.0,0.884,88.3
2023-10-11T03:33:13,2420,42.8014,5.9826,0.533,0.284,3.382,155.0,151.0,152.0,11.8,1504.7,271.5,-0.8,0.9,2485.37,13.28,797.0,0.604,62.0
2023-10-11T03:36:13,2420,42.8014,5.9826,0.768,0.03,3.612,155.0,152.0,152.0,11.8,1504.7,271.4,-0.9,0.9,2485.318,13.28,796.0,0.769,87.8
2023-10-11T03:39:13,2420,42.8014,5.9826,0.825,0.261,3.036,155.0,152.0,152.0,11.8,1504.7,271.5,-0.8,0.9,2485.32,13.28,785.0,0.865,72.4
2023-10-11T03:42:13,2420,42.8014,5.9826,0.397,0.03,3.058,155.0,152.0,152.0,11.8,1504.7,271.4,-0.8,0.9,2485.552,13.28,796.0,0.398,85.7
2023-10-11T03:45:13,2420,42.8014,5.9826,0.404,0.043,3.057,155.0,151.0,152.0,11.8,1504.7,271.5,-0.8,0.9,2485.073,13.28,782.0,0.406,83.9
2023-10-11T03:48:13,2420,42.8014,5.9826,0.519,0.286,3.404,155.0,152.0,152.0,11.8,1504.7,271.4,-0.8,0.9,2485.623,13.28,795.0,0.592,61.1
2023-10-11T03:51:13,2420,42.8014,5.9826,0.393,0.018,3.034,155.0,152.0,152.0,11.8,1504.7,271.6,-0.8,0.9,2485.299,13.28,793.0,0.393,87.4
2023-10-11T03:54:13,2420,42.8014,5.9826,0.447,0.286,3.502,155.0,152.0,152.0,11.8,1504.7,271.5,-0.8,0.9,2485.635,13.28,787.0,0.531,57.4
2023-10-11T03:57:13,2420,42.8014,5.9826,0.499,-0.199,3.437,155.0,151.0,152.0,11.8,1504.7,271.4,-0.8,0.9,2485.623,13.28,792.0,0.537,111.7
2023-10-11T04:03:13,2420,42.8014,5.9826,0.372,0.039,3.125,155.0,151.0,152.0,11.8,1504.7,271.4,-0.8,0.9,2485.137,13.28,777.0,0.374,84.0
2023-10-11T04:06:13,2420,42.8014,5.9826,0.471,0.266,2.592,155.0,152.0,152.0,11.8,1504.7,271.6,-0.8,0.9,2485.637,13.28,792.0,0.541,60.5
2023-10-11T04:09:13,2420,42.8014,5.9826,0.399,0.036,3.989,155.0,152.0,152.0,11.8,1504.7,271.4,-0.9,0.9,2485.583,13.28,776.0,0.401,84.8
2023-10-11T04:12:13,2420,42.8014,5.9826,0.842,0.05,3.498,155.0,152.0,152.0,11.8,1504.7,271.4,-0.8,0.9,2485.504,13.28,786.0,0.843,86.6
2023-10-11T04:15:13,2420,42.8014,5.9826,0.391,-0.211,3.568,155.0,152.0,152.0,11.8,1504.7,271.4,-0.9,0.9,2485.54,13.28,781.0,0.444,118.4
2023-10-11T04:18:13,2420,42.8014,5.9826,0.59,0.031,2.913,155.0,151.0,152.0,11.8,1504.7,271.3,-0.9,0.9,2485.259,13.28,787.0,0.591,87.0
2023-10-11T04:21:13,2420,42.8014,5.9826,-0.037,0.31,3.056,155.0,152.0,152.0,11.8,1504.7,271.4,-0.9,0.9,2485.623,13.28,777.0,0.312,353.2
2023-10-11T04:24:13,2420,42.8014,5.9826,0.617,0.047,3.776,155.0,152.0,152.0,11.8,1504.7,271.3,-0.9,0.9,2485.358,13.28,781.0,0.619,85.6
2023-10-11T04:27:13,2420,42.8014,5.9826,0.716,0.035,3.624,155.0,152.0,152.0,11.8,1504.7,271.5,-0.8,0.9,2485.643,13.28,776.0,0.717,87.2
2023-10-11T04:30:13,2420,42.8014,5.9826,0.59,-0.455,2.884,155.0,152.0,152.0,11.8,1504.7,271.4,-0.9,0.9,2485.801,13.28,775.0,0.745,127.6
2023-10-11T04:33:12,2420,42.8014,5.9826,0.724,0.047,3.681,155.0,152.0,152.0,11.7,1504.7,271.4,-0.8,0.9,2485.683,13.28,789.0,0.726,86.3
2023-10-11T04:36:13,2420,42.8014,5.9826,1.377,-0.475,2.087,155.0,152.0,152.0,11.8,1504.7,271.3,-0.8,0.9,2485.404,13.28,793.0,1.457,109.0
2023-10-11T04:39:13,2420,42.8014,5.9826,0.487,0.059,3.904,155.0,152.0,152.0,11.8,1504.7,271.3,-0.8,0.9,2485.556,13.28,779.0,0.491,83.1
2023-10-11T04:42:13,2420,42.8014,5.9826,0.444,-0.182,3.458,155.0,152.0,152.0,11.8,1504.7,271.3,-0.8,0.9,2485.659,13.28,791.0,0.48,112.3
2023-10-11T04:45:13,2420,42.8014,5.9826,0.648,0.279,3.267,155.0,151.0,152.0,11.8,1504.7,271.4,-0.8,0.9,2485.404,13.28,783.0,0.705,66.7
2023-10-11T04:48:13,2420,42.8014,5.9826,1.017,0.012,2.403,155.0,152.0,152.0,11.8,1504.7,271.3,-0.8,0.9,2485.552,13.28,800.0,1.017,89.3
2023-10-11T04:51:13,2420,42.8014,5.9826,0.443,0.065,3.922,155.0,151.0,152.0,11.8,1504.7,271.3,-0.8,0.9,2485.466,13.28,790.0,0.448,81.7
2023-10-11T04:54:13,2420,42.8014,5.9826,0.273,-0.211,3.667,155.0,151.0,152.0,11.8,1504.7,271.4,-0.9,0.9,2485.354,13.28,783.0,0.345,127.7
2023-10-11T04:57:13,2420,42.8014,5.9826,0.396,-0.216,3.502,155.0,151.0,152.0,11.8,1504.7,271.5,-0.8,0.9,2485.366,13.28,803.0,0.451,118.6
2023-10-11T05:03:13,2420,42.8014,5.9826,0.218,-0.452,3.292,155.0,151.0,152.0,11.8,1504.7,271.5,-0.8,0.9,2485.591,13.28,794.0,0.502,154.3
2023-10-11T05:06:13,2420,42.8014,5.9826,0.96,0.026,3.396,155.0,152.0,152.0,11.8,1504.7,271.3,-0.9,0.9,2485.366,13.28,789.0,0.96,88.5
2023-10-11T05:09:13,2420,42.8014,5.9826,0.562,0.03,3.797,155.0,152.0,152.0,11.8,1504.7,271.3,-0.8,0.8,2485.689,13.28,787.0,0.563,86.9
2023-10-11T05:12:13,2420,42.8014,5.9826,0.529,0.061,3.853,155.0,151.0,152.0,11.8,1504.7,271.4,-0.8,0.9,2485.059,13.28,780.0,0.532,83.4
2023-10-11T05:15:13,2420,42.8014,5.9826,0.283,-0.196,3.676,155.0,152.0,152.0,11.8,1504.7,271.4,-0.8,0.9,2485.645,13.28,790.0,0.344,124.7
2023-10-11T05:18:13,2420,42.8014,5.9826,0.412,0.066,3.909,155.0,151.0,152.0,11.8,1504.7,271.3,-0.8,0.9,2485.432,13.28,797.0,0.417,80.9
2023-10-11T05:21:13,2420,42.8014,5.9826,0.508,-0.173,3.4,155.0,152.0,152.0,11.8,1504.7,271.3,-0.9,0.9,2485.679,13.28,785.0,0.537,108.8
2023-10-11T05:24:13,2420,42.8014,5.9826,0.458,-0.108,3.567,155.0,152.0,152.0,11.8,1504.7,271.4,-0.9,0.9,2485.348,13.28,788.0,0.471,103.3
2023-10-11T05:27:13,2420,42.8014,5.9826,0.861,0.03,3.505,155.0,151.0,152.0,11.8,1504.7,271.3,-0.9,0.9,2485.661,13.28,794.0,0.862,88.0
2023-10-11T05:30:13,2420,42.8014,5.9826,0.593,0.048,3.747,155.0,152.0,152.0,11.8,1504.7,271.3,-0.8,0.9,2485.189,13.28,774.0,0.595,85.4
2023-10-11T05:33:13,2420,42.8014,5.9826,0.876,0.044,3.45,155.0,152.0,152.0,11.7,1504.7,271.4,-0.8,0.9,2485.785,13.28,785.0,0.877,87.1
2023-10-11T05:36:13,2420,42.8014,5.9826,1.01,0.05,3.309,155.0,151.0,152.0,11.8,1504.7,271.5,-0.8,0.9,2485.273,13.28,793.0,1.011,87.2
2023-10-11T05:39:13,2420,42.8014,5.9826,0.533,-0.189,3.453,155.0,152.0,152.0,11.8,1504.7,271.4,-0.8,0.9,2485.498,13.28,788.0,0.565,109.5
2023-10-11T05:42:13,2420,42.8014,5.9826,0.531,0.055,3.84,155.0,152.0,152.0,11.8,1504.7,271.4,-0.8,0.9,2485.209,13.28,786.0,0.534,84.1
2023-10-11T05:45:13,2420,42.8014,5.9826,0.14,0.538,3.329,155.0,152.0,152.0,11.8,1504.7,271.3,-0.8,0.9,2485.665,13.28,1623.0,0.556,14.6
2023-10-11T05:48:13,2420,42.8014,5.9826,-0.043,0.308,3.125,155.0,152.0,152.0,11.8,1504.7,271.4,-0.8,0.9,2485.85,13.28,794.0,0.311,352.1
2023-10-11T05:51:13,2420,42.8014,5.9826,1.112,-0.237,2.828,155.0,152.0,152.0,11.8,1504.7,271.4,-0.8,0.9,2485.398,13.28,802.0,1.137,102.0
2023-10-11T05:54:13,2420,42.8014,5.9826,0.352,-0.211,2.736,155.0,151.0,152.0,11.8,1504.7,271.4,-0.9,0.9,2485.438,13.28,794.0,0.41,120.9
2023-10-11T05:57:13,2420,42.8014,5.9826,0.71,0.059,3.63,155.0,152.0,152.0,11.8,1504.7,271.3,-0.9,0.9,2485.55,13.28,782.0,0.712,85.3
2023-10-11T06:03:13,2420,42.8014,5.9826,0.004,0.068,4.307,155.0,151.0,152.0,11.7,1504.7,271.3,-0.9,0.9,2485.916,13.28,802.0,0.068,3.4
2023-10-11T06:06:13,2420,42.8014,5.9826,-0.024,0.069,4.313,155.0,151.0,152.0,11.7,1504.7,271.3,-0.8,0.9,2485.801,13.28,795.0,0.073,340.8
2023-10-11T06:09:13,2420,42.8014,5.9826,0.059,0.056,4.191,155.0,151.0,152.0,11.7,1504.7,271.3,-0.8,0.9,2485.558,13.28,799.0,0.081,46.5
2023-10-11T06:12:13,2420,42.8014,5.9826,0.045,0.057,4.17,155.0,151.0,152.0,11.7,1504.7,271.4,-0.8,0.9,2486.042,13.28,804.0,0.072,38.3
2023-10-11T06:15:13,2420,42.8014,5.9826,0.043,0.084,4.165,155.0,151.0,152.0,11.7,1504.7,271.0,-0.9,0.9,2485.908,13.28,795.0,0.094,27.1
2023-10-11T06:18:13,2420,42.8014,5.9826,0.022,0.055,4.122,155.0,151.0,152.0,11.7,1504.7,271.4,-0.8,0.9,2485.833,13.28,796.0,0.059,21.8
2023-10-11T06:21:13,2420,42.8014,5.9826,-0.055,0.007,4.17,155.0,151.0,152.0,11.7,1504.7,271.0,-0.9,0.9,2486.211,13.28,808.0,0.055,277.3
2023-10-11T06:24:13,2420,42.8014,5.9826,-0.006,0.069,4.141,155.0,151.0,152.0,11.7,1504.7,272.1,-0.8,0.9,2485.705,13.28,796.0,0.069,355.0
2023-10-11T06:27:13,2420,42.8014,5.9826,0.016,0.071,4.145,155.0,151.0,152.0,11.7,1504.7,272.5,-0.8,0.9,2486.131,13.28,808.0,0.072,12.7
2023-10-11T06:30:13,2420,42.8014,5.9826,-0.004,0.064,4.172,155.0,151.0,152.0,11.7,1504.7,272.4,-0.8,0.9,2485.912,13.28,790.0,0.064,356.4
2023-10-11T06:33:12,2420,42.8014,5.9826,-0.02,0.065,4.195,155.0,151.0,152.0,11.7,1504.7,272.1,-0.8,0.9,2485.356,13.28,801.0,0.068,342.9
2023-10-11T06:36:13,2420,42.8014,5.9826,0.067,0.067,4.178,155.0,151.0,152.0,11.7,1504.7,272.0,-0.8,0.9,2485.827,13.28,800.0,0.094,45.0
2023-10-11T06:39:13,2420,42.8014,5.9826,0.018,0.058,4.155,155.0,151.0,152.0,11.7,1504.7,271.4,-0.8,0.8,2485.687,13.28,794.0,0.06,17.2
2023-10-11T06:42:13,2420,42.8014,5.9826,-0.147,0.545,2.805,155.0,151.0,152.0,11.8,1504.7,271.3,-0.8,0.9,2485.299,13.28,786.0,0.564,344.9
2023-10-11T06:45:13,2420,42.8014,5.9826,0.479,0.283,3.503,155.0,151.0,152.0,11.8,1504.7,271.4,-0.8,0.9,2485.504,13.28,777.0,0.556,59.4
2023-10-11T06:48:13,2420,42.8014,5.9826,0.489,0.029,3.037,155.0,151.0,152.0,11.8,1504.7,271.4,-0.8,0.9,2485.651,13.28,781.0,0.49,86.6
2023-10-11T06:51:13,2420,42.8014,5.9826,0.346,0.056,4.088,155.0,151.0,152.0,11.8,1504.7,271.3,-0.8,0.9,2485.121,13.28,778.0,0.35,80.8
2023-10-11T06:54:13,2420,42.8014,5.9826,0.03,-0.425,3.505,155.0,151.0,152.0,11.8,1504.7,271.4,-0.8,0.9,2485.426,13.28,799.0,0.426,176.0
2023-10-11T06:57:13,2420,42.8014,5.9826,0.301,0.039,4.126,155.0,151.0,152.0,11.8,1504.7,271.4,-0.8,0.9,2485.633,13.28,793.0,0.303,82.6
2023-10-11T07:03:13,2420,42.8014,5.9826,0.012,0.072,3.538,154.0,151.0,152.0,11.8,1504.7,271.4,-0.8,0.9,2485.307,13.28,786.0,0.072,9.5
2023-10-11T07:06:13,2420,42.8014,5.9826,-0.456,0.053,3.119,155.0,151.0,152.0,11.8,1504.7,271.4,-0.9,0.9,2485.189,13.28,799.0,0.459,276.6
2023-10-11T07:09:13,2420,42.8014,5.9826,0.279,0.068,3.216,155.0,151.0,152.0,11.8,1504.7,271.4,-0.8,0.9,2485.103,13.28,793.0,0.287,76.3
2023-10-11T07:12:13,2420,42.8014,5.9826,-0.146,0.315,4.086,155.0,151.0,152.0,11.8,1504.7,271.4,-0.8,0.9,2485.625,13.28,786.0,0.347,335.1
2023-10-11T07:15:13,2420,42.8014,5.9826,-0.063,0.31,4.023,154.0,151.0,152.0,11.8,1504.7,271.5,-0.8,0.9,2485.093,13.28,799.0,0.316,348.5
2023-10-11T07:18:13,2420,42.8014,5.9826,0.27,0.186,3.921,155.0,151.0,152.0,11.8,1504.7,271.4,-0.8,0.9,2485.892,13.28,779.0,0.328,55.4
2023-10-11T07:21:13,2420,42.8014,5.9826,0.326,0.069,4.092,155.0,151.0,152.0,11.7,1504.7,271.3,-0.8,0.9,2485.546,13.28,802.0,0.333,78.1
2023-10-11T07:24:13,2420,42.8014,5.9826,0.345,0.056,4.052,155.0,151.0,152.0,11.8,1504.7,271.4,-0.9,0.9,2485.346,13.28,780.0,0.349,80.8
2023-10-11T07:27:13,2420,42.8014,5.9826,0.559,0.049,3.844,155.0,151.0,152.0,11.8,1504.7,271.4,-0.8,0.9,2485.374,13.28,787.0,0.561,85.0
2023-10-11T07:30:13,2420,42.8014,5.9826,0.57,0.029,3.816,154.0,151.0,152.0,11.8,1504.7,271.4,-0.8,0.9,2485.297,13.28,786.0,0.571,87.1
2023-10-11T07:33:13,2420,42.8014,5.9826,0.258,0.076,4.159,155.0,151.0,152.0,11.7,1504.7,271.5,-0.8,0.9,2485.671,13.28,775.0,0.269,73.6
2023-10-11T07:36:13,2420,42.8014,5.9826,0.285,-0.435,3.254,155.0,151.0,152.0,11.7,1504.7,271.3,-0.9,0.9,2485.314,13.28,790.0,0.52,146.8
2023-10-11T07:39:13,2420,42.8014,5.9826,0.045,0.551,3.528,155.0,151.0,152.0,11.8,1504.7,271.3,-0.8,0.9,2485.273,13.28,782.0,0.553,4.7
2023-10-11T07:42:13,2420,42.8014,5.9826,-0.174,-0.683,3.247,155.0,151.0,152.0,11.8,1504.7,271.3,-0.8,0.9,2485.593,13.28,788.0,0.705,194.3
2023-10-11T07:45:13,2420,42.8014,5.9826,0.379,0.792,2.682,154.0,151.0,152.0,11.8,1504.7,271.4,-0.8,0.9,2485.575,13.28,789.0,0.878,25.6
2023-10-11T07:48:13,2420,42.8014,5.9826,-0.142,-0.189,4.116,155.0,151.0,152.0,11.8,1504.7,271.5,-0.8,0.9,2485.663,13.28,779.0,0.236,216.9
2023-10-11T07:51:13,2420,42.8014,5.9826,0.129,0.072,4.27,155.0,151.0,152.0,11.8,1504.7,271.3,-0.9,0.9,2485.229,13.28,788.0,0.147,60.8
2023-10-11T07:54:13,2420,42.8014,5.9826,-0.049,0.319,4.007,155.0,151.0,152.0,11.8,1504.7,271.4,-0.8,0.9,2485.336,13.28,796.0,0.323,351.3
2023-10-11T07:57:13,2420,42.8014,5.9826,0.468,-0.208,3.502,155.0,151.0,152.0,11.8,1504.7,271.4,-0.9,0.9,2485.484,13.28,801.0,0.512,114.0
2023-10-11T08:03:12,2420,42.8014,5.9826,0.289,0.044,3.251,155.0,151.0,152.0,11.7,1504.7,271.3,-0.8,0.9,2485.534,13.28,800.0,0.292,81.3
2023-10-11T08:06:13,2420,42.8014,5.9826,0.071,0.534,3.471,155.0,151.0,152.0,11.8,1504.7,271.4,-0.8,0.9,2485.307,13.28,799.0,0.539,7.6
2023-10-11T08:09:13,2420,42.8014,5.9826,0.067,0.043,3.48,154.0,151.0,152.0,11.8,1504.7,271.5,-0.8,0.9,2485.386,13.28,804.0,0.079,57.3
2023-10-11T08:12:13,2420,42.8014,5.9826,0.407,0.29,3.556,155.0,151.0,152.0,11.8,1504.7,271.4,-0.8,0.9,2485.057,13.28,792.0,0.5,54.5
2023-10-11T08:15:13,2420,42.8014,5.9826,0.391,0.042,3.064,155.0,151.0,152.0,11.8,1504.7,271.4,-0.9,0.9,2485.593,13.28,781.0,0.393,83.9
2023-10-11T08:18:13,2420,42.8014,5.9826,0.377,-0.195,3.543,154.0,151.0,152.0,11.8,1504.7,271.5,-0.8,0.9,2485.466,13.28,787.0,0.424,117.4
2023-10-11T08:21:13,2420,42.8014,5.9826,-0.118,-0.179,4.074,155.0,151.0,152.0,11.8,1504.7,271.3,-0.8,0.9,2485.54,13.28,789.0,0.214,213.4
2023-10-11T08:24:13,2420,42.8014,5.9826,0.35,0.059,4.033,155.0,151.0,152.0,11.7,1504.7,271.4,-0.8,0.9,2485.554,13.28,780.0,0.355,80.4
2023-10-11T08:27:13,2420,42.8014,5.9826,0.112,-0.188,3.843,155.0,151.0,152.0,11.8,1504.7,271.5,-0.8,0.9,2485.225,13.28,786.0,0.218,149.2
2023-10-11T08:30:13,2420,42.8014,5.9826,0.29,0.073,4.128,155.0,151.0,152.0,11.8,1504.7,271.4,-0.8,0.9,2485.034,13.28,792.0,0.299,75.9
2023-10-11T08:33:13,2420,42.8014,5.9826,0.219,0.297,2.823,155.0,151.0,152.0,11.8,1504.7,271.3,-0.8,0.9,2485.53,13.28,797.0,0.369,36.4
2023-10-11T08:36:13,2420,42.8014,5.9826,0.194,-0.687,2.878,154.0,151.0,152.0,11.8,1504.7,271.3,-0.8,0.9,2484.854,13.28,774.0,0.714,164.2
2023-10-11T08:39:13,2420,42.8014,5.9826,0.071,0.062,4.36,155.0,151.0,152.0,11.8,1504.7,271.3,-0.9,0.9,2485.249,13.28,822.0,0.094,48.9
2023-10-11T08:42:13,2420,42.8014,5.9826,-0.028,0.198,4.175,155.0,151.0,152.0,11.8,1504.7,271.3,-0.9,0.9,2485.727,13.28,773.0,0.199,352.0
2023-10-11T08:45:13,2420,42.8014,5.9826,0.7,0.278,3.23,155.0,151.0,152.0,11.8,1504.7,271.3,-0.9,0.9,2485.018,13.28,789.0,0.753,68.3
2023-10-11T08:48:13,2420,42.8014,5.9826,0.393,0.276,2.629,155.0,151.0,152.0,11.8,1504.7,271.4,-0.8,0.9,2485.785,13.28,797.0,0.48,54.9
2023-10-11T08:51:13,2420,42.8014,5.9826,-0.019,-0.424,3.557,154.0,151.0,152.0,11.8,1504.7,271.4,-0.8,0.9,2485.075,13.28,794.0,0.424,182.6
2023-10-11T08:54:13,2420,42.8014,5.9826,-0.001,0.533,2.644,154.0,151.0,152.0,11.8,1504.7,271.3,-0.8,0.8,2485.43,13.28,1308.0,0.533,359.9
2023-10-11T08:57:13,2420,42.8014,5.9826,0.305,0.066,4.077,155.0,151.0,152.0,11.8,1504.7,271.3,-0.8,0.9,2485.34,13.28,788.0,0.312,77.8
2023-10-11T09:03:13,2420,42.8014,5.9826,-0.097,0.279,2.305,155.0,151.0,152.0,11.8,1504.7,271.4,-0.8,0.9,2485.089,13.28,797.0,0.295,340.8
2023-10-11T09:06:13,2420,42.8014,5.9826,-0.151,-0.195,3.256,155.0,151.0,152.0,11.8,1504.7,271.5,-0.8,0.9,2485.404,13.28,786.0,0.246,217.8